Time,TemperatureF,DewpointF,PressureIn,WindDirection,WindDirectionDegrees,WindSpeedMPH,WindSpeedGustMPH,Humidity,HourlyPrecipIn,Conditions,Clouds,dailyrainin,SoftwareType,DateUTC
2013-08-26 00:14:00,65.0,58.0,30.42,ENE,72,0.0,0.0,77,0.00,,,0.00,,2013-08-26 04:14:00,
2013-08-26 00:53:00,65.0,58.0,30.41,ENE,61,0.0,0.0,77,0.00,,,0.00,,2013-08-26 04:53:00,
2013-08-26 01:13:00,65.0,58.0,30.41,ENE,60,0.0,0.0,77,0.00,,,0.00,,2013-08-26 05:13:00,
2013-08-26 01:23:00,65.0,58.0,30.40,ENE,61,0.0,0.0,78,0.00,,,0.00,,2013-08-26 05:23:00,
2013-08-26 01:43:00,65.0,58.0,30.40,ENE,61,0.0,0.0,77,0.00,,,0.00,,2013-08-26 05:43:00,
2013-08-26 01:52:00,66.0,58.0,30.40,ENE,60,0.0,0.0,76,0.00,,,0.00,,2013-08-26 05:52:00,
2013-08-26 02:12:00,66.0,58.0,30.39,ENE,61,0.0,1.0,76,0.00,,,0.00,,2013-08-26 06:12:00,
2013-08-26 02:22:00,66.0,58.0,30.39,ENE,58,0.0,0.0,76,0.00,,,0.00,,2013-08-26 06:22:00,
2013-08-26 02:42:00,66.0,58.0,30.39,ENE,58,0.0,0.0,76,0.00,,,0.00,,2013-08-26 06:42:00,
2013-08-26 02:52:00,66.0,59.0,30.39,ENE,58,0.0,1.0,77,0.00,,,0.00,,2013-08-26 06:52:00,
2013-08-26 03:11:00,66.0,59.0,30.39,ENE,60,0.0,1.0,77,0.00,,,0.00,,2013-08-26 07:11:00,
2013-08-26 03:22:00,65.0,58.0,30.39,ENE,61,0.0,0.0,77,0.00,,,0.00,,2013-08-26 07:22:00,
2013-08-26 03:42:00,65.0,58.0,30.38,ENE,61,0.0,0.0,78,0.00,,,0.00,,2013-08-26 07:42:00,
2013-08-26 03:52:00,65.0,58.0,30.37,ENE,60,0.0,0.0,79,0.00,,,0.00,,2013-08-26 07:52:00,
2013-08-26 04:12:00,65.0,59.0,30.37,ENE,63,0.0,0.0,80,0.00,,,0.00,,2013-08-26 08:12:00,
2013-08-26 04:22:00,65.0,59.0,30.36,ENE,63,0.0,0.0,82,0.00,,,0.00,,2013-08-26 08:22:00,
2013-08-26 04:42:00,65.0,59.0,30.36,ENE,62,0.0,0.0,81,0.00,,,0.00,,2013-08-26 08:42:00,
2013-08-26 04:52:00,65.0,59.0,30.35,East,84,0.0,1.0,80,0.00,,,0.00,,2013-08-26 08:52:00,
2013-08-26 05:11:00,65.0,59.0,30.35,East,93,0.0,1.0,80,0.00,,,0.00,,2013-08-26 09:11:00,
2013-08-26 05:22:00,65.0,59.0,30.34,East,91,0.0,0.0,81,0.00,,,0.00,,2013-08-26 09:22:00,
2013-08-26 05:54:00,64.0,59.0,30.34,East,91,0.0,0.0,84,0.00,,,0.00,,2013-08-26 09:54:00,
2013-08-26 06:12:00,64.0,60.0,30.35,East,91,0.0,0.0,87,0.00,,,0.00,,2013-08-26 10:12:00,
2013-08-26 06:23:00,64.0,60.0,30.35,East,91,0.0,0.0,87,0.00,,,0.00,,2013-08-26 10:23:00,
2013-08-26 06:42:00,64.0,60.0,30.35,East,90,0.0,0.0,88,0.00,,,0.00,,2013-08-26 10:42:00,
2013-08-26 06:52:00,63.0,60.0,30.33,East,91,0.0,1.0,89,0.00,,,0.00,,2013-08-26 10:52:00,
2013-08-26 07:12:00,64.0,61.0,30.33,East,91,0.0,0.0,89,0.00,,,0.00,,2013-08-26 11:12:00,
2013-08-26 07:22:00,64.0,60.0,30.33,East,90,0.0,0.0,88,0.00,,,0.00,,2013-08-26 11:22:00,
2013-08-26 07:52:00,64.0,61.0,30.32,East,82,0.0,1.0,89,0.00,,,0.00,,2013-08-26 11:52:00,
2013-08-26 08:12:00,64.0,61.0,30.32,ENE,77,0.0,1.0,90,0.00,,,0.00,,2013-08-26 12:12:00,
2013-08-26 08:22:00,64.0,61.0,30.31,NNE,25,0.0,1.0,91,0.00,,,0.00,,2013-08-26 12:22:00,
2013-08-26 08:52:00,65.0,62.0,30.31,WSW,243,0.0,1.0,89,0.00,,,0.00,,2013-08-26 12:52:00,
2013-08-26 09:12:00,65.0,61.0,30.30,NW,306,0.0,2.0,87,0.00,,,0.00,,2013-08-26 13:12:00,
2013-08-26 09:22:00,66.0,62.0,30.29,NW,314,1.0,3.0,86,0.00,,,0.00,,2013-08-26 13:22:00,
2013-08-26 09:42:00,66.0,61.0,30.30,NNE,19,0.0,2.0,85,0.00,,,0.00,,2013-08-26 13:42:00,
2013-08-26 09:52:00,66.0,61.0,30.29,WSW,237,0.0,2.0,85,0.00,,,0.00,,2013-08-26 13:52:00,
2013-08-26 10:11:00,66.0,61.0,30.28,West,262,0.0,2.0,85,0.00,,,0.00,,2013-08-26 14:11:00,
2013-08-26 10:22:00,68.0,63.0,30.27,NNW,342,0.0,3.0,84,0.00,,,0.00,,2013-08-26 14:22:00,
2013-08-26 10:42:00,68.0,63.0,30.28,ENE,72,1.0,2.0,83,0.00,,,0.00,,2013-08-26 14:42:00,
2013-08-26 10:52:00,70.0,63.0,30.27,West,266,1.0,5.0,79,0.00,,,0.00,,2013-08-26 14:52:00,
2013-08-26 11:12:00,71.0,64.0,30.27,NNE,21,1.0,3.0,79,0.00,,,0.00,,2013-08-26 15:12:00,
2013-08-26 11:22:00,74.0,66.0,30.26,WSW,255,2.0,6.0,75,0.00,,,0.00,,2013-08-26 15:22:00,
2013-08-26 11:47:00,75.0,67.0,30.25,West,263,1.0,3.0,75,0.00,,,0.00,,2013-08-26 15:47:00,
2013-08-26 11:59:00,77.0,67.0,30.24,WSW,249,1.0,5.0,71,0.00,,,0.00,,2013-08-26 15:59:00,
2013-08-26 12:17:00,77.0,66.0,30.24,SW,228,1.0,6.0,70,0.00,,,0.00,,2013-08-26 16:17:00,
2013-08-26 12:29:00,79.0,68.0,30.22,ESE,120,1.0,3.0,70,0.00,,,0.00,,2013-08-26 16:29:00,
2013-08-26 12:48:00,79.0,68.0,30.22,ENE,76,0.0,3.0,69,0.00,,,0.00,,2013-08-26 16:48:00,
2013-08-26 12:59:00,80.0,68.0,30.22,South,169,1.0,3.0,68,0.00,,,0.00,,2013-08-26 16:59:00,
2013-08-26 13:12:00,80.0,69.0,30.21,WSW,253,1.0,3.0,70,0.00,,,0.00,,2013-08-26 17:12:00,
2013-08-26 13:24:00,80.0,69.0,30.21,West,281,1.0,3.0,69,0.00,,,0.00,,2013-08-26 17:24:00,
2013-08-26 13:43:00,80.0,68.0,30.20,East,80,1.0,3.0,68,0.00,,,0.00,,2013-08-26 17:43:00,
2013-08-26 13:53:00,80.0,69.0,30.19,WSW,255,1.0,3.0,69,0.00,,,0.00,,2013-08-26 17:53:00,
2013-08-26 14:12:00,79.0,68.0,30.19,West,270,0.0,3.0,69,0.00,,,0.00,,2013-08-26 18:12:00,
2013-08-26 14:22:00,78.0,68.0,30.18,West,259,0.0,2.0,72,0.00,,,0.00,,2013-08-26 18:22:00,
2013-08-26 14:52:00,79.0,70.0,30.17,WNW,296,0.0,3.0,73,0.00,,,0.00,,2013-08-26 18:52:00,
2013-08-26 15:11:00,79.0,70.0,30.16,WNW,294,0.0,1.0,74,0.00,,,0.00,,2013-08-26 19:11:00,
2013-08-26 15:22:00,79.0,69.0,30.16,West,264,0.0,1.0,72,0.00,,,0.00,,2013-08-26 19:22:00,
2013-08-26 15:42:00,78.0,69.0,30.16,West,269,0.0,1.0,75,0.00,,,0.00,,2013-08-26 19:42:00,
2013-08-26 15:52:00,78.0,69.0,30.16,West,269,0.0,2.0,74,0.00,,,0.00,,2013-08-26 19:52:00,
2013-08-26 16:11:00,78.0,70.0,30.15,West,266,1.0,2.0,76,0.00,,,0.00,,2013-08-26 20:11:00,
2013-08-26 16:22:00,78.0,69.0,30.15,West,274,1.0,2.0,75,0.00,,,0.00,,2013-08-26 20:22:00,
2013-08-26 16:43:00,78.0,69.0,30.14,WSW,249,1.0,2.0,73,0.00,,,0.00,,2013-08-26 20:43:00,
2013-08-26 16:52:00,77.0,69.0,30.15,West,274,0.0,2.0,76,0.00,,,0.00,,2013-08-26 20:52:00,
2013-08-26 17:11:00,77.0,69.0,30.14,West,274,0.0,1.0,77,0.00,,,0.00,,2013-08-26 21:11:00,
2013-08-26 17:22:00,77.0,69.0,30.14,SW,224,0.0,2.0,77,0.00,,,0.00,,2013-08-26 21:22:00,
2013-08-26 17:55:00,77.0,70.0,30.14,SW,223,0.0,0.0,78,0.00,,,0.00,,2013-08-26 21:55:00,
2013-08-26 18:16:00,77.0,70.0,30.13,SW,224,0.0,0.0,78,0.00,,,0.00,,2013-08-26 22:16:00,
2013-08-26 18:26:00,76.0,69.0,30.13,SW,224,0.0,0.0,79,0.00,,,0.00,,2013-08-26 22:26:00,
2013-08-26 18:42:00,76.0,69.0,30.13,SW,223,0.0,0.0,80,0.00,,,0.00,,2013-08-26 22:42:00,
2013-08-26 18:53:00,76.0,70.0,30.13,SW,223,0.0,0.0,82,0.00,,,0.00,,2013-08-26 22:53:00,
2013-08-26 19:13:00,75.0,69.0,30.13,SW,224,0.0,0.0,82,0.00,,,0.00,,2013-08-26 23:13:00,
2013-08-26 19:22:00,75.0,69.0,30.13,SW,224,0.0,0.0,83,0.00,,,0.00,,2013-08-26 23:22:00,
2013-08-26 19:52:00,74.0,69.0,30.12,SW,224,0.0,0.0,85,0.00,,,0.00,,2013-08-26 23:52:00,
2013-08-26 20:11:00,73.0,69.0,30.13,SW,224,0.0,0.0,86,0.00,,,0.00,,2013-08-27 00:11:00,
2013-08-26 20:22:00,73.0,69.0,30.13,SW,224,0.0,0.0,87,0.00,,,0.00,,2013-08-27 00:22:00,
2013-08-26 20:42:00,72.0,68.0,30.12,SW,224,0.0,0.0,87,0.00,,,0.00,,2013-08-27 00:42:00,
2013-08-26 20:52:00,72.0,68.0,30.13,SW,224,0.0,0.0,87,0.00,,,0.00,,2013-08-27 00:52:00,
2013-08-26 21:12:00,72.0,68.0,30.13,SW,224,0.0,0.0,87,0.00,,,0.00,,2013-08-27 01:12:00,
2013-08-26 21:22:00,72.0,68.0,30.13,SW,224,0.0,0.0,87,0.00,,,0.00,,2013-08-27 01:22:00,
2013-08-26 21:42:00,72.0,68.0,30.13,SW,224,0.0,0.0,87,0.00,,,0.00,,2013-08-27 01:42:00,
2013-08-26 21:52:00,73.0,69.0,30.12,South,172,0.0,0.0,86,0.00,,,0.00,,2013-08-27 01:52:00,
2013-08-26 22:12:00,73.0,69.0,30.12,South,172,0.0,0.0,86,0.00,,,0.00,,2013-08-27 02:12:00,
2013-08-26 22:22:00,72.0,68.0,30.12,South,172,0.0,0.0,88,0.00,,,0.00,,2013-08-27 02:22:00,
2013-08-26 22:42:00,72.0,68.0,30.12,South,172,0.0,0.0,88,0.00,,,0.00,,2013-08-27 02:42:00,
2013-08-26 22:52:00,71.0,68.0,30.12,South,172,0.0,0.0,89,0.00,,,0.00,,2013-08-27 02:52:00,
2013-08-26 23:12:00,71.0,68.0,30.12,South,172,0.0,0.0,90,0.00,,,0.00,,2013-08-27 03:12:00,
2013-08-26 23:23:00,71.0,68.0,30.12,South,172,0.0,0.0,90,0.00,,,0.00,,2013-08-27 03:23:00,
2013-08-26 23:44:00,71.0,68.0,30.11,South,172,0.0,0.0,90,0.00,,,0.00,,2013-08-27 03:44:00,
2013-08-26 23:58:00,71.0,68.0,30.10,South,172,0.0,0.0,91,0.00,,,0.00,,2013-08-27 03:58:00,